This is the latest recevied weather packets stored in our database for station/object N6WDO. If no packets are shown the sender has not sent any weather packets the latest 10 day(s).
| Time | Temp. | Humidity | Pressure | Rain* | Wind** | Luminosity | Snow |
|---|---|---|---|---|---|---|---|
| 1777665675 | 26.11° C | 46% | 1015.7 hPa | 0 mm | - | 733 W/m² | - |
| 1777665373 | 26.11° C | 43% | 1015.8 hPa | 0 mm | - | 733 W/m² | - |
| 1777665068 | 26.67° C | 45% | 1015.8 hPa | 0 mm | - | 734 W/m² | - |
| 1777664764 | 26.67° C | 46% | 1015.9 hPa | 0 mm | - | 729 W/m² | - |
| 1777664459 | 26.11° C | 42% | 1015.9 hPa | 0 mm | - | 733 W/m² | - |
| 1777664157 | 26.67° C | 43% | 1016.1 hPa | 0 mm | - | 725 W/m² | - |
| 1777663856 | 25.56° C | 39% | 1016.5 hPa | 0 mm | - | 733 W/m² | - |
| 1777663551 | 25.56° C | 42% | 1016.3 hPa | 0 mm | - | 732 W/m² | - |
| 1777663250 | 25.56° C | 40% | 1016.3 hPa | 0 mm | - | 721 W/m² | - |
| 1777662946 | 26.11° C | 42% | 1016.3 hPa | 0 mm | - | 726 W/m² | - |
| 1777662644 | 26.11° C | 40% | 1016.3 hPa | 0 mm | - | 722 W/m² | - |
| 1777662339 | 25.56° C | 42% | 1016.3 hPa | 0 mm | - | 717 W/m² | - |
| 1777662035 | 25° C | 40% | 1016.5 hPa | 0 mm | - | 718 W/m² | - |
| 1777661731 | 24.44° C | 45% | 1016.7 hPa | 0 mm | - | 712 W/m² | - |
| 1777661427 | 24.44° C | 41% | 1016.6 hPa | 0 mm | - | 708 W/m² | - |
| 1777661123 | 25° C | 41% | 1016.8 hPa | 0 mm | - | 703 W/m² | - |
| 1777660818 | 25° C | 41% | 1016.7 hPa | 0 mm | - | 696 W/m² | - |
| 1777660515 | 24.44° C | 43% | 1016.9 hPa | 0 mm | - | 694 W/m² | - |
| 1777660211 | 25° C | 42% | 1017 hPa | 0 mm | - | 686 W/m² | - |
| 1777659908 | 24.44° C | 43% | 1016.9 hPa | 0 mm | - | 681 W/m² | - |
| 1777659605 | 24.44° C | 44% | 1017 hPa | 0 mm | - | 672 W/m² | - |
| 1777659302 | 25° C | 43% | 1016.9 hPa | 0 mm | - | 665 W/m² | - |
| 1777658999 | 24.44° C | 44% | 1016.9 hPa | 0 mm | - | 656 W/m² | - |
| 1777658697 | 25.56° C | 44% | 1016.9 hPa | 0 mm | - | 649 W/m² | - |
| 1777658392 | 25° C | 45% | 1017 hPa | 0 mm | - | 635 W/m² | - |
* Rain latest hour (hover to see other rain measurements)
** Current wind speed in m/s (hover to see current wind gust speed)